G6RZA-13 Weather Reports


time (UTC)temp
C
wind
direction
speed
KPH
gust
KPH
rain 1hr
cm
rain 24hr
cm
rain mn
cm
humidity
%
barometer
mb
20260507061028 9 75 1.6 6.4 0.00 0.00 0.00 87 1016.8
20260507060028 9 78 3.2 9.7 0.00 0.00 0.00 87 1016.7
20260507055048 9 72 6.4 14.5 0.00 0.00 0.00 88 1016.7
20260507054028 9 218 0.0 0.0 0.00 0.00 0.00 88 1016.6
20260507053029 9 51 3.2 8.0 0.00 0.00 0.00 88 1016.4
20260507052108 9 58 4.8 11.3 0.00 0.00 0.00 88 1016.5
20260507051029 9 89 1.6 8.0 0.00 0.00 0.00 88 1016.5
20260507050029 9 247 1.6 4.8 0.00 0.00 0.00 88 1016.5
20260507045029 9 63 0.0 1.6 0.00 0.00 0.00 88 1016.4
20260507044029 9 16 1.6 6.4 0.00 0.00 0.00 88 1016.4
20260507043029 9 355 0.0 4.8 0.00 0.00 0.00 88 1016.2
20260507042029 9 57 1.6 4.8 0.00 0.00 0.00 87 1016.2
20260507041029 9 22 3.2 4.8 0.00 0.00 0.00 87 1016.2
20260507040050 9 54 0.0 1.6 0.00 0.00 0.00 87 1016.1
20260507035030 9 59 4.8 9.7 0.00 0.00 0.00 87 1016.1
20260507034030 9 70 1.6 6.4 0.00 0.00 0.00 87 1016.1
20260507033030 9 34 3.2 4.8 0.00 0.00 0.00 87 1016.0
20260507032031 9 0.0 0.0 0.00 0.00 0.00 87 1016.0
20260507031050 9 109 0.0 3.2 0.00 0.00 0.00 87 1016.0
20260507030030 9 144 1.6 3.2 0.00 0.00 0.00 87 1016.0
20260507025030 9 41 1.6 6.4 0.00 0.00 0.00 87 1016.0
20260507024016 9 98 1.6 3.2 0.00 0.00 0.00 87 1015.9
20260507023016 9 65 1.6 6.4 0.00 0.00 0.00 87 1015.9
20260507022031 9 17 1.6 6.4 0.00 0.00 0.00 87 1015.8
20260507021031 9 3 0.0 4.8 0.00 0.00 0.00 87 1015.8
20260507020051 9 0.0 0.0 0.00 0.00 0.00 86 1015.7
20260507015031 9 26 1.6 4.8 0.00 0.00 0.00 86 1015.7
20260507014051 9 349 1.6 8.0 0.00 0.00 0.00 86 1015.7
20260507013036 9 0.0 0.0 0.00 0.00 0.00 86 1015.8
20260507012017 10 60 0.0 1.6 0.00 0.00 0.00 85 1015.8
20260507011017 10 70 0.0 1.6 0.00 0.00 0.00 85 1015.8
20260507010017 10 38 0.0 3.2 0.00 0.00 0.00 85 1015.8
20260507005017 10 40 0.0 3.2 0.00 0.00 0.00 85 1015.7
20260507004017 10 75 1.6 6.4 0.00 0.00 0.00 84 1015.7
20260507003017 10 44 1.6 3.2 0.00 0.00 0.00 84 1015.8
20260507002017 10 7 0.0 0.0 0.00 0.00 0.00 83 1015.9
20260507001032 10 102 0.0 1.6 0.00 0.00 0.00 83 1015.9
20260507000018 10 4 0.0 1.6 0.00 0.00 0.00 83 1015.9
20260506235018 10 349 1.6 4.8 0.00 0.00 0.00 83 1015.9
20260506234038 10 87 0.0 0.0 0.00 0.00 0.00 82 1015.8
20260506233018 10 19 1.6 4.8 0.00 0.00 0.00 81 1015.8
20260506232019 10 340 0.0 1.6 0.00 0.00 0.00 81 1015.8
20260506231019 10 4 3.2 4.8 0.00 0.00 0.00 81 1015.8
20260506230018 10 16 1.6 3.2 0.00 0.00 0.00 80 1015.8
20260506225019 10 68 0.0 1.6 0.00 0.00 0.00 80 1015.7
20260506224019 10 14 1.6 3.2 0.00 0.00 0.00 80 1015.7
20260506223019 10 32 0.0 4.8 0.00 0.00 0.00 80 1015.7
20260506222019 11 61 1.6 3.2 0.00 0.00 0.00 80 1015.7
20260506221019 11 47 1.6 4.8 0.00 0.00 0.00 80 1015.7
20260506220019 11 37 1.6 4.8 0.00 0.00 0.00 79 1015.6
20260506215019 11 79 1.6 4.8 0.00 0.00 0.00 79 1015.6
20260506214040 11 48 1.6 4.8 0.00 0.00 0.00 79 1015.6
20260506213020 11 84 3.2 4.8 0.00 0.00 0.00 79 1015.6
20260506212020 11 61 1.6 6.4 0.00 0.00 0.00 79 1015.5
20260506211020 11 13 3.2 6.4 0.00 0.00 0.00 79 1015.5
20260506210101 11 52 0.0 3.2 0.00 0.00 0.00 78 1015.4
20260506205018 11 26 1.6 8.0 0.00 0.00 0.00 78 1015.3
20260506204018 11 75 1.6 4.8 0.00 0.00 0.00 78 1015.2
20260506203018 11 58 1.6 6.4 0.00 0.00 0.00 77 1015.2
20260506202018 11 70 1.6 6.4 0.00 0.00 0.00 77 1015.2
20260506201018 11 10 1.6 9.7 0.00 0.00 0.00 76 1015.0
20260506200018 11 58 3.2 8.0 0.00 0.00 0.00 76 1014.9
20260506195018 11 11 4.8 11.3 0.00 0.00 0.00 75 1014.9
20260506194039 11 52 1.6 8.0 0.00 0.00 0.00 74 1014.8
20260506193019 11 50 1.6 8.0 0.00 0.00 0.00 74 1014.6
20260506192019 11 34 3.2 9.7 0.00 0.00 0.00 74 1014.6
20260506191019 12 72 4.8 9.7 0.00 0.00 0.00 73 1014.6
20260506190018 12 90 1.6 6.4 0.00 0.00 0.00 72 1014.4
20260506185017 12 356 4.8 11.3 0.00 0.00 0.00 72 1014.3
20260506184019 12 342 6.4 17.7 0.00 0.00 0.00 70 1014.2
20260506183019 12 97 0.0 4.8 0.00 0.00 0.00 70 1014.0
20260506182019 12 110 1.6 4.8 0.00 0.00 0.00 69 1013.9
20260506181016 12 128 1.6 6.4 0.00 0.00 0.00 70 1013.9
20260506180017 12 97 1.6 4.8 0.00 0.00 0.00 69 1013.7
20260506175017 12 181 1.6 8.0 0.00 0.00 0.00 68 1013.7
20260506174020 12 138 1.6 11.3 0.00 0.00 0.00 67 1013.6
20260506173020 12 118 1.6 6.4 0.00 0.00 0.00 68 1013.6
20260506172037 12 127 4.8 12.9 0.00 0.00 0.00 69 1013.5
20260506171017 12 136 3.2 8.0 0.00 0.00 0.00 68 1013.6
20260506170018 12 147 3.2 9.7 0.00 0.00 0.00 67 1013.5
20260506165038 12 142 3.2 12.9 0.00 0.00 0.00 66 1013.5
20260506164018 12 181 4.8 12.9 0.00 0.00 0.00 66 1013.4
20260506163018 12 169 4.8 14.5 0.00 0.00 0.00 66 1013.5
20260506162018 12 85 1.6 8.0 0.00 0.00 0.00 65 1013.5
20260506161018 12 142 3.2 11.3 0.00 0.00 0.00 65 1013.5
20260506160018 13 170 4.8 14.5 0.00 0.00 0.00 64 1013.5
20260506155018 13 183 1.6 11.3 0.00 0.00 0.00 64 1013.5
20260506154019 13 144 3.2 12.9 0.00 0.00 0.00 63 1013.5
20260506153039 14 162 4.8 14.5 0.00 0.00 0.00 57 1013.5
20260506152019 14 144 4.8 14.5 0.00 0.00 0.00 54 1013.5
20260506151039 14 38 1.6 6.4 0.00 0.00 0.00 50 1013.2
20260506150057 15 350 6.4 16.1 0.00 0.00 0.00 49 1013.2
20260506145039 15 349 0.0 6.4 0.00 0.00 0.00 49 1013.2
20260506144020 15 346 6.4 22.5 0.00 0.00 0.00 49 1013.2
20260506143020 16 318 4.8 24.1 0.00 0.00 0.00 47 1013.2
20260506142017 16 320 4.8 17.7 0.00 0.00 0.00 44 1013.0
20260506141037 16 309 4.8 17.7 0.00 0.00 0.00 42 1013.0
20260506140017 15 330 6.4 14.5 0.00 0.00 0.00 44 1013.1
20260506135017 15 336 12.9 24.1 0.00 0.00 0.00 45 1013.1
20260506134020 15 343 16.1 35.4 0.00 0.00 0.00 46 1013.1
20260506133017 15 342 14.5 33.8 0.00 0.00 0.00 47 1013.1
20260506132017 15 326 9.7 22.5 0.00 0.00 0.00 49 1013.2
20260506131038 14 330 8.0 22.5 0.00 0.00 0.00 49 1013.2
20260506130018 15 340 9.7 24.1 0.00 0.00 0.00 48 1013.2
20260506125018 15 355 16.1 29.0 0.00 0.00 0.00 47 1013.2
20260506124018 14 340 9.7 32.2 0.00 0.00 0.00 48 1013.2
20260506123038 14 322 9.7 24.1 0.00 0.00 0.00 50 1013.1
20260506122038 14 352 14.5 29.0 0.00 0.00 0.00 48 1013.1
20260506121018 14 355 11.3 24.1 0.00 0.00 0.00 51 1013.2
20260506120018 15 342 19.3 33.8 0.00 0.00 0.00 51 1013.2
20260506115016 15 346 19.3 38.6 0.00 0.00 0.00 48 1013.2
20260506114019 14 331 14.5 38.6 0.00 0.00 0.00 52 1013.2
20260506113019 13 347 16.1 30.6 0.00 0.00 0.00 53 1013.2
20260506112019 13 343 16.1 32.2 0.00 0.00 0.00 53 1013.3
20260506111019 13 358 8.0 19.3 0.00 0.00 0.00 54 1013.3
20260506110016 13 347 17.7 30.6 0.00 0.00 0.00 55 1013.3
20260506105017 13 343 11.3 27.4 0.00 0.00 0.00 55 1013.3
20260506104020 13 354 14.5 25.7 0.00 0.00 0.00 56 1013.3
20260506103100 13 346 12.9 22.5 0.00 0.00 0.00 56 1013.4
20260506102017 13 346 11.3 27.4 0.00 0.00 0.00 59 1013.3
20260506101017 12 349 12.9 20.9 0.00 0.00 0.00 60 1013.4
20260506100017 12 348 12.9 22.5 0.00 0.00 0.00 63 1013.4
20260506095017 12 357 16.1 25.7 0.00 0.00 0.00 62 1013.4
20260506094020 12 355 11.3 22.5 0.00 0.00 0.00 62 1013.4
20260506093017 12 353 12.9 22.5 0.00 0.00 0.00 62 1013.3
20260506092018 12 358 12.9 24.1 0.00 0.00 0.00 63 1013.4
20260506091018 11 350 17.7 29.0 0.00 0.00 0.00 67 1013.4
20260506090018 11 1 12.9 24.1 0.00 0.00 0.00 68 1013.3
20260506085038 11 360 11.3 25.7 0.00 0.00 0.00 70 1013.3
20260506084018 11 355 14.5 24.1 0.00 0.00 0.00 71 1013.3
20260506083018 11 2 14.5 25.7 0.00 0.00 0.00 72 1013.2
20260506082018 11 346 12.9 25.7 0.00 0.00 0.00 74 1013.2
20260506081038 10 4 9.7 16.1 0.00 0.00 0.00 74 1013.1
20260506073022 10 342 12.9 20.9 0.00 0.00 0.00 79 1013.1
20260506072022 10 351 16.1 24.1 0.00 0.00 0.00 80 1013.1
20260506071022 9 353 9.7 16.1 0.00 0.00 0.00 82 1013.1
20260506070112 8 360 6.4 11.3 0.00 0.00 0.00 82 1013.1
20260506062017 9 355 9.7 17.7 0.00 0.00 0.00 84 1013.0